THORAD AGENA D DEB, 4655

Orbit data source: Space-Track

THORAD AGENA D DEB, 4655 is space debris in SSO originally from a launch on Wed, 08 Apr 1970 UTC launched from the Air Force Western Test Range (AFWTR). Debris objects in space refer to the collection of defunct objects orbiting the Earth. Examples of debris include non-operational satellites, rocket bodies, and fragments generated from explosions, collisions, or faulty payload assembly.

Loading next visibility...
Identifier
4655, 1970-025AP
Orbit
SSO
Last TLE update
1 day ago
Origin
Manufacturer
Unknown
Mission
Spacecraft
Bus & Motor
Unknown
Mass
Unknown
Launch date (UTC)
1970-04-08 (55 years ago)
Launch vehicle
Unknown
Launch site
Air Force Western Test Range (AFWTR)
Object type
Payload
Rocket body
Debris
Shape & HBR
Unknown
Radar Cross Section
Small (<0.1 m²)

Expand to show TLE details & history

TLE from 1 day ago
0 THORAD AGENA D DEB
1 04655U 70025AP  25128.17657332  .00000212  00000-0  29686-3 0  9995
2 04655  99.9620 219.5838 0055435  97.6621 263.0823 13.69115829742390
Epoch: 2025-05-08T04:14Z
Definitive object data (Epoch: 2025-05-08T04:14:15.934Z)
Latitude
-0.00008°
Longitude
-70.2334°
Altitude
1,010.702 km
Speed
7.344 km/s
True Right ascension
14h 38m 20s
True Declination
0° 00' 00"
Sunlit
Object was in full shadow at TLE epoch
Visualization TLE readout
Latitude
-54.45627°
Longitude
96.71504°
Altitude
1,055.282 km
Speed
7.308 km/s
Apparent Right ascension
01h 56m 00s
Apparent Declination
-47° 35' 41"
Sunlit
Object is in daylight
Visualization observer readout
Local Sidereal Time
14:04:45
Azimuth
169.135° S
Elevation
-82.162°
Doppler factor
1
Orbital elements
Apogee altitude
1,040.937 km
Perigee altitude
959.136 km
Semi-major axis
7,378.174 km
Eccentricity
0.0055435
Inclination
99.962°
RAAN
219.5838°
Arg. of periapsis
97.6621°
True anomaly
262.45222°
Mean anomaly
263.0823°
Eccentric anomaly
262.76721°
Mean motion
3.42468 °/min
BSTAR
0.00029686
Orbital period
105.12 mins
Loading maneuver chart data...
Loading SW <> Apogee altitude chart data...

THORAD AGENA D DEB Visibility forecast

Observer location: undefined°, undefined°

Span
Click to sort rows by Start time (UTC) header in descending order
Start Az.
Max El. time (UTC)
Max El. Az.
Max El.
End time (UTC)
End Az.
10 mins2025-05-09 06:39:00.152Z194.71° SSW2025-05-09 06:44:00.152Z260.359° W32.985°2025-05-09 06:49:00.152Z326.781° NNW
6 mins2025-05-09 17:43:00.152Z65.737° ENE2025-05-09 17:45:00.152Z89.522° E18.304°2025-05-09 17:49:00.152Z133.82° SE
10 mins2025-05-09 19:25:00.152Z4.493° NNE2025-05-09 19:29:00.152Z307.654° NW41.035°2025-05-09 19:35:00.152Z211.359° SW
9 mins2025-05-10 05:29:00.152Z139.545° SSE2025-05-10 05:33:00.152Z70.98° E39.495°2025-05-10 05:38:00.152Z356.172° N
|